Weather History for LFLN - February, 2013

Change the Weather History Date:

Thursday, February 21, 2013

  Actual Average (LFLC) Record (LFLC)
Temperature  
Mean Temperature 28 °F -  
Max Temperature 33 °F 47 °F 59 °F (1997)
Min Temperature 23 °F 33 °F 19 °F (2012)
Degree Days  
Heating Degree Days 37    
Moisture  
Dew Point 23 °F    
Average Humidity 76    
Maximum Humidity 100    
Minimum Humidity 60    
Precipitation  
Precipitation 0.00 in - - ()
Sea Level Pressure  
Sea Level Pressure 29.91 in    
Wind  
Wind Speed 4 mph ()    
Max Wind Speed 10 mph    
Max Gust Speed -    
Visibility 6.2 miles    
Events      
Averages and records for this station are not official NWS values.
T = Trace of Precipitation, MM = Missing Value Source: Averaged Metar Reports

Daily Weather History Graph

Daily Weather History Graph

Search for Another Location

Airport or City:

Trip Planner

Search our weather history database for the weather conditions in past years. The results will help you decide how hot, cold, wet, or windy it might be!

Date:

Astronomy

Feb. 21, 2013 Rise Set
Actual Time 7:37 AM CET 6:18 PM CET
Civil Twilight 7:06 AM CET 6:49 PM CET
Nautical Twilight 6:31 AM CET 7:24 PM CET
Astronomical Twilight 5:56 AM CET 7:58 PM CET
Moon 2:09 PM CET (2/21) 4:40 AM CET (2/21)
Length of Visible Light 11h 42m
Length of Day
10h 41m
Waxing Gibbous, 82% of the Moon is Illuminated
Feb 21
Waxing Gibbous
Feb 25
Full
Mar 4
Last Quarter
Mar 11
New
Mar 19
First Quarter

Hourly Weather History & Observations

Time (CET) Temp. Windchill Dew Point Humidity Pressure Visibility Wind Dir Wind Speed Gust Speed Precip Events Conditions
12:00 AM 32.0 °F - 24.8 °F 75% 29.98 in 6.2 mi Variable 1.2 mph - N/A   Unknown
12:30 AM 30.2 °F - 24.8 °F 80% 29.98 in 6.2 mi NE 1.2 mph - N/A   Unknown
1:00 AM 30.2 °F 26.7 °F 24.8 °F 80% 29.98 in 6.2 mi NE 3.5 mph - N/A   Unknown
1:30 AM 28.4 °F - 24.8 °F 86% 29.98 in 6.2 mi Variable 2.3 mph - N/A   Unknown
2:00 AM 26.6 °F - 24.8 °F 93% 29.98 in 6.2 mi NNE 2.3 mph - N/A   Unknown
2:30 AM 26.6 °F 22.6 °F 24.8 °F 93% 29.98 in 6.2 mi NNW 3.5 mph - N/A   Unknown
3:00 AM 26.6 °F 22.6 °F 24.8 °F 93% 29.98 in 6.2 mi North 3.5 mph - N/A   Unknown
3:30 AM 24.8 °F - 23.0 °F 93% 29.95 in 6.2 mi Calm Calm - N/A   Unknown
4:00 AM 24.8 °F 19.1 °F 23.0 °F 93% 29.95 in 6.2 mi NW 4.6 mph - N/A   Unknown
4:30 AM 23.0 °F - 21.2 °F 93% 29.95 in 5.6 mi Calm Calm - N/A   Unknown
5:00 AM 24.8 °F - 23.0 °F 93% 29.95 in 6.2 mi NNE 2.3 mph - N/A   Unknown
5:30 AM 23.0 °F - 23.0 °F 100% 29.95 in 6.2 mi Variable 2.3 mph - N/A   Unknown
6:00 AM 23.0 °F - 21.2 °F 93% 29.95 in 6.2 mi North 2.3 mph - N/A   Unknown
6:30 AM 24.8 °F - 23.0 °F 93% 29.95 in 6.2 mi NNE 2.3 mph - N/A   Unknown
7:00 AM 23.0 °F - 21.2 °F 93% 29.92 in 6.2 mi NNE 2.3 mph - N/A   Unknown
7:30 AM 24.8 °F 20.5 °F 23.0 °F 93% 29.92 in 6.2 mi NNE 3.5 mph - N/A   Unknown
8:00 AM 24.8 °F - 23.0 °F 93% 29.92 in 6.2 mi North 2.3 mph - N/A   Unknown
8:30 AM 24.8 °F 20.5 °F 23.0 °F 93% 29.92 in 6.2 mi North 3.5 mph - N/A   Unknown
9:00 AM 26.6 °F 22.6 °F 23.0 °F 86% 29.92 in 6.2 mi North 3.5 mph - N/A   Unknown
9:30 AM 30.2 °F 26.7 °F 24.8 °F 80% 29.92 in 6.2 mi North 3.5 mph - N/A   Unknown
10:00 AM 32.0 °F 24.8 °F 23.0 °F 69% 29.92 in 6.2 mi NE 8.1 mph - N/A   Unknown
10:30 AM 32.0 °F 24.8 °F 23.0 °F 69% 29.92 in 6.2 mi ENE 8.1 mph - N/A   Mostly Cloudy
11:00 AM 32.0 °F 25.6 °F 23.0 °F 69% 29.92 in 6.2 mi NE 6.9 mph - N/A   Overcast
11:30 AM 33.8 °F 25.8 °F 23.0 °F 65% 29.92 in 6.2 mi ENE 10.4 mph - N/A   Overcast
12:00 PM 33.8 °F 28.6 °F 23.0 °F 65% 29.92 in 6.2 mi ENE 5.8 mph - N/A   Overcast
12:30 PM 33.8 °F 27.7 °F 23.0 °F 65% 29.92 in 6.2 mi ENE 6.9 mph - N/A   Overcast
1:00 PM 33.8 °F 26.4 °F 23.0 °F 65% 29.92 in 6.2 mi NE 9.2 mph - N/A   Overcast
1:30 PM 33.8 °F 26.4 °F 23.0 °F 65% 29.89 in 6.2 mi ENE 9.2 mph - N/A   Overcast
2:00 PM 33.8 °F 25.8 °F 23.0 °F 65% 29.89 in 6.2 mi NE 10.4 mph - N/A   Overcast
2:30 PM 33.8 °F 26.4 °F 23.0 °F 65% 29.89 in 6.2 mi ENE 9.2 mph - N/A   Overcast
4:00 PM 33.8 °F 26.4 °F 21.2 °F 60% 29.89 in 6.2 mi NE 9.2 mph - N/A   Overcast
4:30 PM 33.8 °F 26.4 °F 21.2 °F 60% 29.89 in 6.2 mi NNE 9.2 mph - N/A   Overcast
5:00 PM 33.8 °F 27.0 °F 21.2 °F 60% 29.86 in 6.2 mi NE 8.1 mph - N/A   Overcast
5:30 PM 33.8 °F 26.4 °F 21.2 °F 60% 29.86 in 6.2 mi NE 9.2 mph - N/A   Overcast
6:00 PM 33.8 °F 28.6 °F 21.2 °F 60% 29.86 in 6.2 mi NE 5.8 mph - N/A   Overcast
6:30 PM 33.8 °F 29.6 °F 21.2 °F 60% 29.86 in 6.2 mi NNE 4.6 mph - N/A   Overcast
7:00 PM 32.0 °F 28.7 °F 21.2 °F 64% 29.86 in 6.2 mi North 3.5 mph - N/A   Overcast
7:30 PM 32.0 °F 28.7 °F 23.0 °F 69% 29.86 in 6.2 mi North 3.5 mph - N/A   Overcast
8:00 PM 32.0 °F - 23.0 °F 69% 29.86 in 6.2 mi NNE 2.3 mph - N/A   Overcast
9:00 PM 32.0 °F 23.6 °F 19.4 °F 60% 29.86 in 6.2 mi ENE 10.4 mph - N/A   Unknown
9:30 PM 32.0 °F 26.4 °F 21.2 °F 64% 29.86 in 6.2 mi NE 5.8 mph - N/A   Unknown
10:00 PM 32.0 °F 25.6 °F 21.2 °F 64% 29.83 in 6.2 mi NE 6.9 mph - N/A   Unknown
10:30 PM 32.0 °F 26.4 °F 21.2 °F 64% 29.83 in 6.2 mi NE 5.8 mph - N/A   Unknown
11:00 PM 32.0 °F 24.8 °F 21.2 °F 64% 29.83 in 6.2 mi NE 8.1 mph - N/A   Unknown
11:30 PM 30.2 °F 21.3 °F 21.2 °F 69% 29.83 in 6.2 mi ENE 10.4 mph - N/A   Unknown